Weather History for KSIY - August, 2014

Change the Weather History Date:

Sunday, August 17, 2014

  Actual Average Record
Temperature  
Mean Temperature 76 °F 71 °F  
Max Temperature 95 °F 90 °F 103 °F (1977)
Min Temperature 56 °F 52 °F 40 °F (1995)
Degree Days  
Heating Degree Days 0 0  
Month to date heating degree days 0 0  
Since 1 June heating degree days 46 97  
Since 1 July heating degree days 0 4  
Cooling Degree Days 11 6  
Month to date cooling degree days 182 128  
Year to date cooling degree days 703 441  
Since 1 June cooling degree days 696 428  
Growing Degree Days 25 (Base 50)    
Moisture  
Dew Point 45 °F    
Average Humidity 35    
Maximum Humidity 55    
Minimum Humidity 15    
Precipitation  
Precipitation 0.00 in 0.01 in 0.20 in (2010)
Month to date precipitation T 0.29  
Year to date precipitation 6.17 10.95  
Sea Level Pressure  
Sea Level Pressure 30.00 in    
Wind  
Wind Speed 6 mph (North)    
Max Wind Speed 24 mph    
Max Gust Speed 30 mph    
Visibility 10 miles    
Events      
T = Trace of Precipitation, MM = Missing Value Source: NWS Daily Summary

Daily Weather History Graph

Daily Weather History Graph

Search for Another Location

Airport or City:

Trip Planner

Search our weather history database for the weather conditions in past years. The results will help you decide how hot, cold, wet, or windy it might be!

Date:

Astronomy

Aug. 17, 2014 Rise Set
Actual Time 6:20 AM PDT 8:06 PM PDT
Civil Twilight 5:50 AM PDT 8:36 PM PDT
Nautical Twilight 5:14 AM PDT 9:12 PM PDT
Astronomical Twilight 4:35 AM PDT 9:51 PM PDT
Moon No Moon Rise 2:18 PM PDT (8/17)
Length of Visible Light 14h 45m
Length of Day
13h 46m
Waning Gibbous, 47% of the Moon is Illuminated
Aug 17
Waning Gibbous
Aug 25
New
Sep 2
First Quarter
Sep 8
Full
Sep 15
Last Quarter

Hourly Weather History & Observations

Time (PDT) Temp. Dew Point Humidity Pressure Visibility Wind Dir Wind Speed Gust Speed Precip Events Conditions
12:53 AM 70.0 °F 46.0 °F 42% 30.03 in 10.0 mi East 4.6 mph - N/A   Clear
1:53 AM 64.9 °F 43.0 °F 45% 30.03 in 10.0 mi Calm Calm - N/A   Clear
2:53 AM 66.9 °F 45.0 °F 45% 30.04 in 10.0 mi Calm Calm - N/A   Clear
3:53 AM 62.1 °F 42.1 °F 48% 30.04 in 10.0 mi Calm Calm - N/A   Clear
4:53 AM 59.0 °F 42.1 °F 53% 30.05 in 10.0 mi Calm Calm - N/A   Clear
5:53 AM 57.0 °F 41.0 °F 55% 30.06 in 10.0 mi Calm Calm - N/A   Clear
6:53 AM 60.1 °F 43.0 °F 53% 30.07 in 10.0 mi North - - N/A   Clear
7:53 AM 63.0 °F 45.0 °F 52% 30.08 in 10.0 mi Calm Calm - N/A   Clear
8:53 AM 72.0 °F 46.9 °F 41% 30.07 in 10.0 mi NNE 4.6 mph - N/A   Clear
9:53 AM 75.0 °F 46.9 °F 37% 30.06 in 10.0 mi Calm Calm - N/A   Clear
10:53 AM 81.0 °F 46.9 °F 30% 30.04 in 10.0 mi Calm Calm - N/A   Clear
11:53 AM 84.0 °F 46.9 °F 27% 30.02 in 10.0 mi Calm Calm - N/A   Clear
12:53 PM 89.1 °F 46.0 °F 22% 29.99 in 10.0 mi SW 6.9 mph - N/A   Clear
1:53 PM 90.0 °F 43.0 °F 19% 29.97 in 10.0 mi Calm Calm - N/A   Clear
3:53 PM 93.9 °F 39.9 °F 15% 29.93 in 10.0 mi ENE 8.1 mph - N/A   Clear
4:53 PM 93.0 °F 45.0 °F 19% 29.92 in 10.0 mi NNW 20.7 mph 28.8 mph N/A   Clear
5:53 PM 91.0 °F 45.0 °F 20% 29.92 in 10.0 mi North 19.6 mph - N/A   Clear
7:53 PM 82.9 °F 44.1 °F 25% 29.94 in 10.0 mi NNW 17.3 mph - N/A   Clear
8:53 PM 80.1 °F 43.0 °F 27% 29.94 in 10.0 mi NNW 9.2 mph - N/A   Clear
9:53 PM 80.1 °F 45.0 °F 29% 29.97 in 10.0 mi NNW 9.2 mph - N/A   Clear
10:53 PM 78.1 °F 46.9 °F 33% 29.96 in 10.0 mi North 8.1 mph - N/A   Partly Cloudy
11:53 PM 73.9 °F 46.9 °F 38% 29.96 in 10.0 mi North 5.8 mph - N/A   Clear